Year,Month,Day,Hour,Minute,Value (Times are PST for insolation in W/m^2)
2009,02,24,00,00,0.00
2009,02,24,00,01,0.00
2009,02,24,00,02,0.00
2009,02,24,00,03,0.00
2009,02,24,00,04,0.00
2009,02,24,00,05,0.00
2009,02,24,00,06,0.00
2009,02,24,00,07,0.00
2009,02,24,00,08,0.00
2009,02,24,00,09,0.00
2009,02,24,00,10,0.00
2009,02,24,00,11,0.00
2009,02,24,00,12,0.00
2009,02,24,00,13,0.00
2009,02,24,00,14,0.00
2009,02,24,00,15,0.00
2009,02,24,00,16,0.00
2009,02,24,00,17,0.00
2009,02,24,00,18,0.00
2009,02,24,00,19,0.00
2009,02,24,00,20,0.00
2009,02,24,00,21,0.00
2009,02,24,00,22,0.00
2009,02,24,00,23,0.00
2009,02,24,00,24,0.00
2009,02,24,00,25,0.00
2009,02,24,00,26,0.00
2009,02,24,00,27,0.00
2009,02,24,00,28,0.00
2009,02,24,00,29,0.00
2009,02,24,00,30,0.00
2009,02,24,00,31,0.00
2009,02,24,00,32,0.00
2009,02,24,00,33,0.00
2009,02,24,00,34,0.00
2009,02,24,00,35,0.00
2009,02,24,00,36,0.00
2009,02,24,00,37,0.00
2009,02,24,00,38,0.00
2009,02,24,00,39,0.00
2009,02,24,00,40,0.00
2009,02,24,00,41,0.00
2009,02,24,00,42,0.00
2009,02,24,00,43,0.00
2009,02,24,00,44,0.00
2009,02,24,00,45,0.00
2009,02,24,00,46,0.00
2009,02,24,00,47,0.00
2009,02,24,00,48,0.00
2009,02,24,00,49,0.00
2009,02,24,00,50,0.00
2009,02,24,00,51,0.00
2009,02,24,00,52,0.00
2009,02,24,00,53,0.00
2009,02,24,00,54,0.00
2009,02,24,00,55,0.00
2009,02,24,00,56,0.00
2009,02,24,00,57,0.00
2009,02,24,00,58,0.00
2009,02,24,00,59,0.00
2009,02,24,01,00,0.00
2009,02,24,01,01,0.00
2009,02,24,01,02,0.00
2009,02,24,01,03,0.00
2009,02,24,01,04,0.00
2009,02,24,01,05,0.00
2009,02,24,01,06,0.00
2009,02,24,01,07,0.00
2009,02,24,01,08,0.00
2009,02,24,01,09,0.00
2009,02,24,01,10,0.00
2009,02,24,01,11,0.00
2009,02,24,01,12,0.00
2009,02,24,01,13,0.00
2009,02,24,01,14,0.00
2009,02,24,01,15,0.00
2009,02,24,01,16,0.00
2009,02,24,01,17,0.00
2009,02,24,01,18,0.00
2009,02,24,01,19,0.00
2009,02,24,01,20,0.00
2009,02,24,01,21,0.00
2009,02,24,01,22,0.00
2009,02,24,01,23,0.00
2009,02,24,01,24,0.00
2009,02,24,01,25,0.00
2009,02,24,01,26,0.00
2009,02,24,01,27,0.00
2009,02,24,01,28,0.00
2009,02,24,01,29,0.00
2009,02,24,01,30,0.00
2009,02,24,01,31,0.00
2009,02,24,01,32,0.00
2009,02,24,01,33,0.00
2009,02,24,01,34,0.00
2009,02,24,01,35,0.00
2009,02,24,01,36,0.00
2009,02,24,01,37,0.00
2009,02,24,01,38,0.00
2009,02,24,01,39,0.00
2009,02,24,01,40,0.00
2009,02,24,01,41,0.00
2009,02,24,01,42,0.00
2009,02,24,01,43,0.00
2009,02,24,01,44,0.00
2009,02,24,01,45,0.00
2009,02,24,01,46,0.00
2009,02,24,01,47,0.00
2009,02,24,01,48,0.00
2009,02,24,01,49,0.00
2009,02,24,01,50,0.00
2009,02,24,01,51,0.00
2009,02,24,01,52,0.00
2009,02,24,01,53,0.00
2009,02,24,01,54,0.00
2009,02,24,01,55,0.00
2009,02,24,01,56,0.00
2009,02,24,01,57,0.00
2009,02,24,01,58,0.00
2009,02,24,01,59,0.00
2009,02,24,02,00,0.00
2009,02,24,02,01,0.00
2009,02,24,02,02,0.00
2009,02,24,02,03,0.00
2009,02,24,02,04,0.00
2009,02,24,02,05,0.00
2009,02,24,02,06,0.00
2009,02,24,02,07,0.00
2009,02,24,02,08,0.00
2009,02,24,02,09,0.00
2009,02,24,02,10,0.00
2009,02,24,02,11,0.00
2009,02,24,02,12,0.00
2009,02,24,02,13,0.00
2009,02,24,02,14,0.00
2009,02,24,02,15,0.00
2009,02,24,02,16,0.00
2009,02,24,02,17,0.00
2009,02,24,02,18,0.00
2009,02,24,02,19,0.00
2009,02,24,02,20,0.00
2009,02,24,02,21,0.00
2009,02,24,02,22,0.00
2009,02,24,02,23,0.00
2009,02,24,02,24,0.00
2009,02,24,02,25,0.00
2009,02,24,02,26,0.00
2009,02,24,02,27,0.00
2009,02,24,02,28,0.00
2009,02,24,02,29,0.00
2009,02,24,02,30,0.00
2009,02,24,02,31,0.00
2009,02,24,02,32,0.00
2009,02,24,02,33,0.00
2009,02,24,02,34,0.00
2009,02,24,02,35,0.00
2009,02,24,02,36,0.00
2009,02,24,02,37,0.00
2009,02,24,02,38,0.00
2009,02,24,02,39,0.00
2009,02,24,02,40,0.00
2009,02,24,02,41,0.00
2009,02,24,02,42,0.00
2009,02,24,02,43,0.00
2009,02,24,02,44,0.00
2009,02,24,02,45,0.00
2009,02,24,02,46,0.00
2009,02,24,02,47,0.00
2009,02,24,02,48,0.00
2009,02,24,02,49,0.00
2009,02,24,02,50,0.00
2009,02,24,02,51,0.00
2009,02,24,02,52,0.00
2009,02,24,02,53,0.00
2009,02,24,02,54,0.00
2009,02,24,02,55,0.00
2009,02,24,02,56,0.00
2009,02,24,02,57,0.00
2009,02,24,02,58,0.00
2009,02,24,02,59,0.00
2009,02,24,03,00,0.00
2009,02,24,03,01,0.00
2009,02,24,03,02,0.00
2009,02,24,03,03,0.00
2009,02,24,03,04,0.00
2009,02,24,03,05,0.00
2009,02,24,03,06,0.00
2009,02,24,03,07,0.00
2009,02,24,03,08,0.00
2009,02,24,03,09,0.00
2009,02,24,03,10,0.00
2009,02,24,03,11,0.00
2009,02,24,03,12,0.00
2009,02,24,03,13,0.00
2009,02,24,03,14,0.00
2009,02,24,03,15,0.00
2009,02,24,03,16,0.00
2009,02,24,03,17,0.00
2009,02,24,03,18,0.00
2009,02,24,03,19,0.00
2009,02,24,03,20,0.00
2009,02,24,03,21,0.00
2009,02,24,03,22,0.00
2009,02,24,03,23,0.00
2009,02,24,03,24,0.00
2009,02,24,03,25,0.00
2009,02,24,03,26,0.00
2009,02,24,03,27,0.00
2009,02,24,03,28,0.00
2009,02,24,03,29,0.00
2009,02,24,03,30,0.00
2009,02,24,03,31,0.00
2009,02,24,03,32,0.00
2009,02,24,03,33,0.00
2009,02,24,03,34,0.00
2009,02,24,03,35,0.00
2009,02,24,03,36,0.00
2009,02,24,03,37,0.00
2009,02,24,03,38,0.00
2009,02,24,03,39,0.00
2009,02,24,03,40,0.00
2009,02,24,03,41,0.00
2009,02,24,03,42,0.00
2009,02,24,03,43,0.00
2009,02,24,03,44,0.00
2009,02,24,03,45,0.00
2009,02,24,03,46,0.00
2009,02,24,03,47,0.00
2009,02,24,03,48,0.00
2009,02,24,03,49,0.00
2009,02,24,03,50,0.00
2009,02,24,03,51,0.00
2009,02,24,03,52,0.00
2009,02,24,03,53,0.00
2009,02,24,03,54,0.00
2009,02,24,03,55,0.00
2009,02,24,03,56,0.00
2009,02,24,03,57,0.00
2009,02,24,03,58,0.00
2009,02,24,03,59,0.00
2009,02,24,04,00,0.00
2009,02,24,04,01,0.00
2009,02,24,04,02,0.00
2009,02,24,04,03,0.00
2009,02,24,04,04,0.00
2009,02,24,04,05,0.00
2009,02,24,04,06,0.00
2009,02,24,04,07,0.00
2009,02,24,04,08,0.00
2009,02,24,04,09,0.00
2009,02,24,04,10,0.00
2009,02,24,04,11,0.00
2009,02,24,04,12,0.00
2009,02,24,04,13,0.00
2009,02,24,04,14,0.00
2009,02,24,04,15,0.00
2009,02,24,04,16,0.00
2009,02,24,04,17,0.00
2009,02,24,04,18,0.00
2009,02,24,04,19,0.00
2009,02,24,04,20,0.00
2009,02,24,04,21,0.00
2009,02,24,04,22,0.00
2009,02,24,04,23,0.00
2009,02,24,04,24,0.00
2009,02,24,04,25,0.00
2009,02,24,04,26,0.00
2009,02,24,04,27,0.00
2009,02,24,04,28,0.00
2009,02,24,04,29,0.00
2009,02,24,04,30,0.00
2009,02,24,04,31,0.00
2009,02,24,04,32,0.00
2009,02,24,04,33,0.00
2009,02,24,04,34,0.00
2009,02,24,04,35,0.00
2009,02,24,04,36,0.00
2009,02,24,04,37,0.00
2009,02,24,04,38,0.00
2009,02,24,04,39,0.00
2009,02,24,04,40,0.00
2009,02,24,04,41,0.00
2009,02,24,04,42,0.00
2009,02,24,04,43,0.00
2009,02,24,04,44,0.00
2009,02,24,04,45,0.00
2009,02,24,04,46,0.00
2009,02,24,04,47,0.00
2009,02,24,04,48,0.00
2009,02,24,04,49,0.00
2009,02,24,04,50,0.00
2009,02,24,04,51,0.00
2009,02,24,04,52,0.00
2009,02,24,04,53,0.00
2009,02,24,04,54,0.00
2009,02,24,04,55,0.00
2009,02,24,04,56,0.00
2009,02,24,04,57,0.00
2009,02,24,04,58,0.00
2009,02,24,04,59,0.00
2009,02,24,05,00,0.00
2009,02,24,05,01,0.00
2009,02,24,05,02,0.00
2009,02,24,05,03,0.00
2009,02,24,05,04,0.00
2009,02,24,05,05,0.00
2009,02,24,05,06,0.00
2009,02,24,05,07,0.00
2009,02,24,05,08,0.00
2009,02,24,05,09,0.00
2009,02,24,05,10,0.00
2009,02,24,05,11,0.00
2009,02,24,05,12,0.00
2009,02,24,05,13,0.00
2009,02,24,05,14,0.00
2009,02,24,05,15,0.00
2009,02,24,05,16,0.00
2009,02,24,05,17,0.00
2009,02,24,05,18,0.00
2009,02,24,05,19,0.00
2009,02,24,05,20,0.00
2009,02,24,05,21,0.00
2009,02,24,05,22,0.00
2009,02,24,05,23,0.00
2009,02,24,05,24,0.00
2009,02,24,05,25,0.00
2009,02,24,05,26,0.00
2009,02,24,05,27,0.00
2009,02,24,05,28,0.00
2009,02,24,05,29,0.00
2009,02,24,05,30,0.00
2009,02,24,05,31,0.00
2009,02,24,05,32,0.00
2009,02,24,05,33,0.00
2009,02,24,05,34,0.00
2009,02,24,05,35,0.00
2009,02,24,05,36,0.00
2009,02,24,05,37,0.00
2009,02,24,05,38,0.00
2009,02,24,05,39,0.00
2009,02,24,05,40,0.00
2009,02,24,05,41,0.00
2009,02,24,05,42,0.00
2009,02,24,05,43,0.00
2009,02,24,05,44,0.00
2009,02,24,05,45,0.00
2009,02,24,05,46,0.00
2009,02,24,05,47,0.00
2009,02,24,05,48,0.00
2009,02,24,05,49,0.00
2009,02,24,05,50,0.00
2009,02,24,05,51,0.00
2009,02,24,05,52,0.00
2009,02,24,05,53,0.00
2009,02,24,05,54,0.00
2009,02,24,05,55,0.00
2009,02,24,05,56,0.00
2009,02,24,05,57,0.00
2009,02,24,05,58,0.00
2009,02,24,05,59,0.00
2009,02,24,06,00,0.00
2009,02,24,06,01,0.00
2009,02,24,06,02,0.00
2009,02,24,06,03,0.00
2009,02,24,06,04,0.00
2009,02,24,06,05,0.00
2009,02,24,06,06,0.00
2009,02,24,06,07,0.00
2009,02,24,06,08,0.00
2009,02,24,06,09,0.00
2009,02,24,06,10,0.00
2009,02,24,06,11,0.00
2009,02,24,06,12,0.00
2009,02,24,06,13,0.00
2009,02,24,06,14,0.00
2009,02,24,06,15,0.00
2009,02,24,06,16,0.00
2009,02,24,06,17,0.00
2009,02,24,06,18,0.00
2009,02,24,06,19,0.00
2009,02,24,06,20,0.00
2009,02,24,06,21,0.00
2009,02,24,06,22,0.00
2009,02,24,06,23,0.00
2009,02,24,06,24,0.00
2009,02,24,06,25,0.00
2009,02,24,06,26,0.00
2009,02,24,06,27,0.00
2009,02,24,06,28,0.00
2009,02,24,06,29,0.00
2009,02,24,06,30,0.00
2009,02,24,06,31,0.00
2009,02,24,06,32,0.00
2009,02,24,06,33,0.00
2009,02,24,06,34,0.00
2009,02,24,06,35,0.00
2009,02,24,06,36,0.00
2009,02,24,06,37,0.00
2009,02,24,06,38,0.00
2009,02,24,06,39,0.00
2009,02,24,06,40,0.00
2009,02,24,06,41,0.00
2009,02,24,06,42,0.00
2009,02,24,06,43,0.00
2009,02,24,06,44,0.00
2009,02,24,06,45,0.00
2009,02,24,06,46,0.00
2009,02,24,06,47,0.00
2009,02,24,06,48,0.00
2009,02,24,06,49,0.00
2009,02,24,06,50,0.00
2009,02,24,06,51,0.00
2009,02,24,06,52,0.00
2009,02,24,06,53,0.00
2009,02,24,06,54,0.00
2009,02,24,06,55,0.00
2009,02,24,06,56,0.00
2009,02,24,06,57,0.00
2009,02,24,06,58,0.00
2009,02,24,06,59,0.00
2009,02,24,07,00,0.00
2009,02,24,07,01,0.00
2009,02,24,07,02,0.00
2009,02,24,07,03,0.00
2009,02,24,07,04,0.00
2009,02,24,07,05,0.00
2009,02,24,07,06,0.00
2009,02,24,07,07,0.00
2009,02,24,07,08,0.00
2009,02,24,07,09,0.00
2009,02,24,07,10,0.00
2009,02,24,07,11,0.00
2009,02,24,07,12,2.10
2009,02,24,07,13,5.00
2009,02,24,07,14,5.00
2009,02,24,07,15,5.00
2009,02,24,07,16,5.00
2009,02,24,07,17,5.00
2009,02,24,07,18,5.00
2009,02,24,07,19,5.00
2009,02,24,07,20,5.00
2009,02,24,07,21,6.90
2009,02,24,07,22,7.00
2009,02,24,07,23,8.00
2009,02,24,07,24,11.50
2009,02,24,07,25,12.00
2009,02,24,07,26,12.00
2009,02,24,07,27,14.10
2009,02,24,07,28,16.00
2009,02,24,07,29,16.00
2009,02,24,07,30,16.00
2009,02,24,07,31,16.00
2009,02,24,07,32,17.40
2009,02,24,07,33,18.00
2009,02,24,07,34,19.40
2009,02,24,07,35,22.40
2009,02,24,07,36,25.50
2009,02,24,07,37,25.30
2009,02,24,07,38,25.80
2009,02,24,07,39,28.20
2009,02,24,07,40,32.00
2009,02,24,07,41,32.00
2009,02,24,07,42,33.70
2009,02,24,07,43,36.40
2009,02,24,07,44,38.80
2009,02,24,07,45,41.90
2009,02,24,07,46,44.50
2009,02,24,07,47,47.00
2009,02,24,07,48,47.80
2009,02,24,07,49,48.40
2009,02,24,07,50,49.00
2009,02,24,07,51,49.00
2009,02,24,07,52,50.20
2009,02,24,07,53,54.20
2009,02,24,07,54,56.00
2009,02,24,07,55,59.10
2009,02,24,07,56,56.80
2009,02,24,07,57,53.90
2009,02,24,07,58,52.30
2009,02,24,07,59,50.00
2009,02,24,08,00,47.70
2009,02,24,08,01,46.30
2009,02,24,08,02,44.10
2009,02,24,08,03,44.00
2009,02,24,08,04,44.80
2009,02,24,08,05,48.00
2009,02,24,08,06,52.20
2009,02,24,08,07,59.60
2009,02,24,08,08,65.00
2009,02,24,08,09,68.40
2009,02,24,08,10,66.20
2009,02,24,08,11,76.90
2009,02,24,08,12,65.30
2009,02,24,08,13,56.00
2009,02,24,08,14,39.00
2009,02,24,08,15,34.60
2009,02,24,08,16,31.90
2009,02,24,08,17,28.90
2009,02,24,08,18,26.80
2009,02,24,08,19,25.10
2009,02,24,08,20,23.00
2009,02,24,08,21,23.00
2009,02,24,08,22,23.70
2009,02,24,08,23,25.60
2009,02,24,08,24,28.90
2009,02,24,08,25,32.70
2009,02,24,08,26,39.60
2009,02,24,08,27,44.60
2009,02,24,08,28,46.40
2009,02,24,08,29,48.00
2009,02,24,08,30,50.50
2009,02,24,08,31,51.00
2009,02,24,08,32,51.00
2009,02,24,08,33,51.00
2009,02,24,08,34,51.90
2009,02,24,08,35,53.60
2009,02,24,08,36,55.50
2009,02,24,08,37,57.60
2009,02,24,08,38,59.30
2009,02,24,08,39,70.80
2009,02,24,08,40,77.40
2009,02,24,08,41,80.20
2009,02,24,08,42,82.40
2009,02,24,08,43,83.90
2009,02,24,08,44,86.00
2009,02,24,08,45,86.00
2009,02,24,08,46,86.00
2009,02,24,08,47,86.00
2009,02,24,08,48,87.40
2009,02,24,08,49,88.00
2009,02,24,08,50,88.40
2009,02,24,08,51,89.40
2009,02,24,08,52,88.00
2009,02,24,08,53,90.10
2009,02,24,08,54,95.90
2009,02,24,08,55,103.20
2009,02,24,08,56,110.60
2009,02,24,08,57,120.70
2009,02,24,08,58,125.00
2009,02,24,08,59,120.80
2009,02,24,09,00,106.50
2009,02,24,09,01,94.40
2009,02,24,09,02,82.60
2009,02,24,09,03,75.10
2009,02,24,09,04,72.00
2009,02,24,09,05,76.20
2009,02,24,09,06,85.20
2009,02,24,09,10,127.10
2009,02,24,09,11,133.10
2009,02,24,09,12,136.80
2009,02,24,09,13,141.40
2009,02,24,09,14,144.50
2009,02,24,09,15,146.00
2009,02,24,09,16,143.10
2009,02,24,09,17,135.90
2009,02,24,09,18,128.40
2009,02,24,09,19,116.80
2009,02,24,09,20,107.90
2009,02,24,09,21,96.20
2009,02,24,09,22,86.40
2009,02,24,09,23,78.60
2009,02,24,09,24,76.10
2009,02,24,09,25,80.20
2009,02,24,09,26,91.80
2009,02,24,09,27,106.20
2009,02,24,09,28,116.20
2009,02,24,09,29,119.60
2009,02,24,09,30,118.10
2009,02,24,09,31,114.30
2009,02,24,09,32,118.20
2009,02,24,09,33,123.00
2009,02,24,09,34,132.80
2009,02,24,09,35,189.00
2009,02,24,09,36,177.70
2009,02,24,09,37,143.60
2009,02,24,09,38,182.50
2009,02,24,09,39,157.10
2009,02,24,09,40,133.30
2009,02,24,09,41,188.80
2009,02,24,09,42,228.90
2009,02,24,09,43,415.00
2009,02,24,09,44,402.50
2009,02,24,09,45,381.00
2009,02,24,09,46,254.20
2009,02,24,09,47,224.30
2009,02,24,09,48,317.00
2009,02,24,09,49,331.30
2009,02,24,09,50,299.50
2009,02,24,09,51,317.20
2009,02,24,09,52,343.00
2009,02,24,09,53,274.80
2009,02,24,09,54,227.30
2009,02,24,09,55,197.70
2009,02,24,09,56,241.00
2009,02,24,09,57,241.00
2009,02,24,09,58,250.20
2009,02,24,09,59,237.00
2009,02,24,10,00,258.30
2009,02,24,10,01,255.00
2009,02,24,10,02,327.00
2009,02,24,10,03,409.10
2009,02,24,10,04,415.40
2009,02,24,10,05,417.00
2009,02,24,10,06,432.70
2009,02,24,10,07,417.20
2009,02,24,10,08,354.00
2009,02,24,10,09,325.60
2009,02,24,10,10,281.60
2009,02,24,10,11,299.00
2009,02,24,10,12,335.40
2009,02,24,10,13,323.00
2009,02,24,10,14,318.50
2009,02,24,10,15,299.00
2009,02,24,10,16,273.10
2009,02,24,10,17,269.00
2009,02,24,10,18,237.80
2009,02,24,10,19,239.10
2009,02,24,10,20,227.80
2009,02,24,10,21,228.00
2009,02,24,10,22,229.20
2009,02,24,10,23,224.60
2009,02,24,10,24,237.90
2009,02,24,10,25,244.50
2009,02,24,10,26,247.30
2009,02,24,10,27,253.40
2009,02,24,10,28,265.80
2009,02,24,10,29,273.50
2009,02,24,10,30,279.60
2009,02,24,10,31,285.80
2009,02,24,10,32,281.70
2009,02,24,10,33,290.40
2009,02,24,10,34,307.40
2009,02,24,10,35,330.00
2009,02,24,10,36,320.30
2009,02,24,10,37,332.10
2009,02,24,10,38,345.40
2009,02,24,10,39,384.10
2009,02,24,10,40,406.00
2009,02,24,10,41,254.20
2009,02,24,10,42,249.50
2009,02,24,10,43,262.20
2009,02,24,10,44,276.00
2009,02,24,10,45,276.00
2009,02,24,10,46,276.00
2009,02,24,10,47,250.50
2009,02,24,10,48,248.00
2009,02,24,10,49,248.00
2009,02,24,10,50,248.00
2009,02,24,10,51,248.00
2009,02,24,10,52,438.00
2009,02,24,10,53,438.00
2009,02,24,10,54,498.00
2009,02,24,10,55,638.00
2009,02,24,10,56,474.30
2009,02,24,10,57,385.00
2009,02,24,10,58,380.50
2009,02,24,10,59,279.90
2009,02,24,11,00,214.00
2009,02,24,11,01,222.30
2009,02,24,11,02,217.40
2009,02,24,11,03,213.00
2009,02,24,11,04,589.10
2009,02,24,11,05,561.40
2009,02,24,11,06,570.00
2009,02,24,11,07,570.00
2009,02,24,11,08,549.60
2009,02,24,11,09,570.40
2009,02,24,11,10,529.00
2009,02,24,11,11,508.80
2009,02,24,11,12,573.00
2009,02,24,11,13,573.00
2009,02,24,11,14,680.80
2009,02,24,11,15,714.00
2009,02,24,11,16,527.80
2009,02,24,11,17,594.00
2009,02,24,11,18,514.80
2009,02,24,11,19,396.00
2009,02,24,11,20,347.10
2009,02,24,11,21,322.40
2009,02,24,11,22,326.50
2009,02,24,11,23,278.80
2009,02,24,11,24,257.60
2009,02,24,11,25,243.50
2009,02,24,11,26,241.00
2009,02,24,11,27,233.40
2009,02,24,11,28,236.20
2009,02,24,11,29,226.40
2009,02,24,11,30,208.00
2009,02,24,11,31,192.90
2009,02,24,11,32,188.00
2009,02,24,11,33,192.00
2009,02,24,11,34,206.80
2009,02,24,11,35,212.10
2009,02,24,11,36,222.10
2009,02,24,11,37,255.90
2009,02,24,11,38,280.20
2009,02,24,11,39,322.00
2009,02,24,11,40,366.00
2009,02,24,11,41,351.00
2009,02,24,11,42,300.60
2009,02,24,11,43,285.60
2009,02,24,11,44,271.50
2009,02,24,11,45,264.40
2009,02,24,11,46,296.70
2009,02,24,11,47,301.60
2009,02,24,11,48,349.50
2009,02,24,11,49,375.00
2009,02,24,11,50,387.00
2009,02,24,11,51,387.00
2009,02,24,11,52,387.00
2009,02,24,11,53,506.70
2009,02,24,11,54,786.10
2009,02,24,11,55,783.20
2009,02,24,11,56,718.00
2009,02,24,11,57,711.00
2009,02,24,11,58,748.70
2009,02,24,11,59,774.20
2009,02,24,12,00,751.20
2009,02,24,12,01,728.90
2009,02,24,12,02,717.40
2009,02,24,12,03,692.70
2009,02,24,12,04,707.80
2009,02,24,12,05,722.80
2009,02,24,12,06,721.00
2009,02,24,12,07,710.30
2009,02,24,12,08,729.40
2009,02,24,12,09,735.00
2009,02,24,12,10,735.00
2009,02,24,12,11,735.00
2009,02,24,12,12,637.90
2009,02,24,12,13,585.00
2009,02,24,12,14,387.00
2009,02,24,12,15,296.50
2009,02,24,12,16,259.00
2009,02,24,12,17,237.60
2009,02,24,12,18,233.00
2009,02,24,12,19,208.20
2009,02,24,12,20,187.20
2009,02,24,12,21,184.00
2009,02,24,12,22,208.20
2009,02,24,12,23,216.00
2009,02,24,12,24,216.00
2009,02,24,12,25,216.00
2009,02,24,12,26,304.50
2009,02,24,12,27,281.00
2009,02,24,12,28,272.90
2009,02,24,12,29,252.00
2009,02,24,12,30,256.10
2009,02,24,12,31,245.00
2009,02,24,12,32,242.60
2009,02,24,12,33,245.10
2009,02,24,12,34,281.00
2009,02,24,12,35,331.00
2009,02,24,12,36,399.30
2009,02,24,12,37,382.40
2009,02,24,12,38,396.10
2009,02,24,12,39,372.80
2009,02,24,12,40,366.10
2009,02,24,12,41,352.00
2009,02,24,12,42,329.40
2009,02,24,12,43,315.60
2009,02,24,12,44,331.70
2009,02,24,12,45,380.00
2009,02,24,12,46,380.00
2009,02,24,12,47,380.00
2009,02,24,12,48,609.80
2009,02,24,12,49,584.60
2009,02,24,12,50,580.00
2009,02,24,12,51,680.90
2009,02,24,12,52,924.40
2009,02,24,12,53,926.00
2009,02,24,12,54,926.00
2009,02,24,12,55,926.00
2009,02,24,12,56,859.10
2009,02,24,12,57,480.00
2009,02,24,12,58,631.40
2009,02,24,12,59,766.00
2009,02,24,13,00,798.20
2009,02,24,13,01,809.00
2009,02,24,13,02,809.00
2009,02,24,13,03,809.00
2009,02,24,13,04,826.20
2009,02,24,13,05,846.40
2009,02,24,13,06,855.80
2009,02,24,13,07,865.00
2009,02,24,13,08,847.00
2009,02,24,13,09,803.80
2009,02,24,13,10,808.50
2009,02,24,13,11,777.00
2009,02,24,13,12,738.20
2009,02,24,13,13,765.90
2009,02,24,13,14,790.30
2009,02,24,13,15,752.00
2009,02,24,13,16,489.20
2009,02,24,13,17,302.90
2009,02,24,13,18,272.10
2009,02,24,13,19,242.10
2009,02,24,13,20,216.80
2009,02,24,13,21,238.10
2009,02,24,13,22,282.40
2009,02,24,13,23,308.00
2009,02,24,13,24,308.00
2009,02,24,13,25,593.00
2009,02,24,13,26,608.00
2009,02,24,13,27,608.00
2009,02,24,13,28,608.00
2009,02,24,13,29,608.00
2009,02,24,13,30,714.40
2009,02,24,13,31,721.00
2009,02,24,13,32,601.00
2009,02,24,13,33,307.40
2009,02,24,13,34,295.00
2009,02,24,13,35,275.00
2009,02,24,13,36,265.00
2009,02,24,13,37,265.00
2009,02,24,13,38,280.00
2009,02,24,13,39,305.20
2009,02,24,13,40,344.30
2009,02,24,13,41,349.20
2009,02,24,13,42,377.50
2009,02,24,13,43,445.80
2009,02,24,13,44,515.00
2009,02,24,13,45,479.50
2009,02,24,13,46,434.60
2009,02,24,13,47,521.40
2009,02,24,13,48,496.00
2009,02,24,13,49,508.90
2009,02,24,13,50,575.00
2009,02,24,13,51,575.00
2009,02,24,13,52,575.00
2009,02,24,13,53,757.60
2009,02,24,13,54,772.00
2009,02,24,13,55,680.50
2009,02,24,13,56,617.00
2009,02,24,13,57,694.50
2009,02,24,13,58,755.90
2009,02,24,13,59,751.00
2009,02,24,14,00,751.00
2009,02,24,14,01,751.00
2009,02,24,14,02,732.10
2009,02,24,14,03,656.50
2009,02,24,14,04,608.00
2009,02,24,14,05,608.00
2009,02,24,14,06,695.90
2009,02,24,14,07,672.50
2009,02,24,14,08,636.80
2009,02,24,14,09,651.80
2009,02,24,14,10,666.50
2009,02,24,14,11,628.40
2009,02,24,14,12,600.80
2009,02,24,14,13,547.00
2009,02,24,14,14,579.00
2009,02,24,14,15,633.70
2009,02,24,14,16,649.00
2009,02,24,14,17,649.00
2009,02,24,14,18,618.30
2009,02,24,14,19,605.00
2009,02,24,14,20,605.00
2009,02,24,14,21,548.10
2009,02,24,14,22,517.00
2009,02,24,14,23,500.10
2009,02,24,14,24,230.00
2009,02,24,14,25,230.00
2009,02,24,14,26,435.90
2009,02,24,14,27,616.20
2009,02,24,14,28,587.20
2009,02,24,14,29,577.50
2009,02,24,14,30,560.20
2009,02,24,14,31,530.50
2009,02,24,14,32,521.50
2009,02,24,14,33,513.40
2009,02,24,14,34,512.00
2009,02,24,14,35,510.90
2009,02,24,14,36,487.60
2009,02,24,14,37,455.60
2009,02,24,14,38,411.00
2009,02,24,14,39,458.40
2009,02,24,14,40,482.60
2009,02,24,14,41,487.10
2009,02,24,14,42,482.00
2009,02,24,14,43,415.00
2009,02,24,14,44,415.00
2009,02,24,14,45,434.50
2009,02,24,14,46,478.60
2009,02,24,14,47,487.00
2009,02,24,14,48,500.50
2009,02,24,14,49,529.40
2009,02,24,14,50,524.00
2009,02,24,14,51,499.30
2009,02,24,14,52,494.00
2009,02,24,14,53,327.00
2009,02,24,14,54,327.00
2009,02,24,14,55,327.00
2009,02,24,14,56,433.80
2009,02,24,14,57,492.00
2009,02,24,14,58,490.30
2009,02,24,14,59,499.00
2009,02,24,15,00,513.60
2009,02,24,15,01,508.60
2009,02,24,15,02,503.60
2009,02,24,15,03,529.70
2009,02,24,15,04,521.70
2009,02,24,15,05,211.00
2009,02,24,15,06,252.70
2009,02,24,15,07,350.00
2009,02,24,15,08,258.90
2009,02,24,15,09,252.80
2009,02,24,15,10,257.00
2009,02,24,15,11,257.00
2009,02,24,15,12,257.00
2009,02,24,15,13,257.00
2009,02,24,15,14,242.00
2009,02,24,15,15,238.20
2009,02,24,15,16,239.00
2009,02,24,15,17,289.20
2009,02,24,15,18,490.00
2009,02,24,15,19,490.00
2009,02,24,15,20,553.00
2009,02,24,15,21,587.00
2009,02,24,15,22,587.00
2009,02,24,15,23,524.20
2009,02,24,15,24,336.00
2009,02,24,15,25,336.00
2009,02,24,15,26,336.00
2009,02,24,15,27,319.00
2009,02,24,15,28,314.10
2009,02,24,15,29,290.00
2009,02,24,15,30,308.40
2009,02,24,15,31,308.60
2009,02,24,15,32,284.20
2009,02,24,15,33,279.00
2009,02,24,15,34,446.00
2009,02,24,15,35,446.00
2009,02,24,15,36,382.10
2009,02,24,15,37,320.20
2009,02,24,15,38,278.60
2009,02,24,15,39,257.00
2009,02,24,15,40,450.00
2009,02,24,15,41,450.00
2009,02,24,15,42,306.50
2009,02,24,15,43,179.00
2009,02,24,15,44,203.70
2009,02,24,15,45,279.50
2009,02,24,15,46,313.00
2009,02,24,15,47,347.20
2009,02,24,15,48,410.00
2009,02,24,15,49,418.00
2009,02,24,15,50,411.80
2009,02,24,15,51,441.10
2009,02,24,15,52,417.40
2009,02,24,15,53,434.00
2009,02,24,15,54,427.00
2009,02,24,15,55,420.00
2009,02,24,15,56,303.50
2009,02,24,15,57,285.00
2009,02,24,15,58,214.40
2009,02,24,15,59,155.60
2009,02,24,16,00,153.00
2009,02,24,16,01,152.50
2009,02,24,16,02,153.00
2009,02,24,16,03,163.90
2009,02,24,16,04,187.50
2009,02,24,16,05,169.10
2009,02,24,16,06,162.70
2009,02,24,16,07,161.50
2009,02,24,16,08,166.70
2009,02,24,16,09,169.20
2009,02,24,16,10,182.50
2009,02,24,16,11,173.00
2009,02,24,16,12,174.00
2009,02,24,16,13,154.90
2009,02,24,16,14,145.00
2009,02,24,16,15,147.20
2009,02,24,16,16,172.90
2009,02,24,16,17,209.60
2009,02,24,16,18,186.40
2009,02,24,16,19,154.30
2009,02,24,16,20,140.50
2009,02,24,16,21,127.80
2009,02,24,16,22,127.40
2009,02,24,16,23,129.80
2009,02,24,16,24,132.00
2009,02,24,16,25,128.70
2009,02,24,16,26,130.20
2009,02,24,16,27,133.60
2009,02,24,16,28,130.80
2009,02,24,16,29,123.80
2009,02,24,16,30,118.80
2009,02,24,16,31,118.00
2009,02,24,16,32,109.00
2009,02,24,16,33,109.00
2009,02,24,16,34,109.00
2009,02,24,16,35,103.50
2009,02,24,16,36,95.90
2009,02,24,16,37,95.00
2009,02,24,16,38,84.70
2009,02,24,16,39,90.30
2009,02,24,16,40,91.00
2009,02,24,16,41,90.40
2009,02,24,16,42,90.00
2009,02,24,16,43,88.40
2009,02,24,16,44,90.00
2009,02,24,16,45,90.00
2009,02,24,16,46,90.00
2009,02,24,16,47,90.60
2009,02,24,16,48,93.60
2009,02,24,16,49,95.00
2009,02,24,16,50,95.40
2009,02,24,16,51,99.50
2009,02,24,16,52,102.00
2009,02,24,16,53,87.20
2009,02,24,16,54,69.80
2009,02,24,16,55,67.00
2009,02,24,16,56,66.30
2009,02,24,16,57,62.60
2009,02,24,16,58,57.60
2009,02,24,16,59,47.70
2009,02,24,17,00,41.10
2009,02,24,17,01,35.80
2009,02,24,17,02,32.00
2009,02,24,17,03,32.00
2009,02,24,17,04,30.90
2009,02,24,17,05,31.10
2009,02,24,17,06,32.70
2009,02,24,17,07,37.00
2009,02,24,17,08,36.30
2009,02,24,17,09,32.10
2009,02,24,17,10,28.90
2009,02,24,17,11,26.60
2009,02,24,17,12,25.10
2009,02,24,17,13,21.40
2009,02,24,17,14,21.00
2009,02,24,17,15,21.80
2009,02,24,17,16,23.00
2009,02,24,17,17,24.40
2009,02,24,17,18,25.00
2009,02,24,17,19,22.90
2009,02,24,17,20,21.00
2009,02,24,17,21,20.00
2009,02,24,17,22,18.00